Temp
64 64 63 64 63 63 62 61 56 51 54 62 61 65 64 64 63 62 61 61 61 60 59 58 58 59 60 60 61 61 61 62 63 64 65 65 65 65
58 60 62 63 61 60 59 59 59 55 50 59 60 63 63 63 62 61 60 60 60 59 58 57 57 57 58 58 59 59 60 60 61 62 63 63 64 64
58 60 60 61 59 60 59 57 56 56 51 55 59 61 60 59 60 59 59 58 58 60 59 58 57 57 57 57 57 58 58 59 60 61 61 62 62 63
60 59 58 60 57 57 57 56 56 57 53 50 55 55 55 57 57 56 56 59 57 59 59 58 57 56 55 55 56 56 57 57 58 59 60 61 61 62
60 57 57 56 56 56 57 57 55 56 55 52 51 55 54 55 53 55 55 56 57 58 57 57 56 55 55 55 55 55 55 55 56 57 57 58 59 60
60 59 59 58 57 57 57 56 56 54 54 52 51 50 50 51 51 50 49 51 50 54 55 55 56 56 56 55 55 55 54 55 55 55 56 56 57 57
59 59 59 58 57 56 54 52 52 51 50 47 45 44 45 46 47 49 47 47 50 50 48 50 51 51 52 56 55 55 54 54 54 54 55 54 55 55
55 56 56 56 56 56 55 55 53 49 47 45 44 43 45 47 48 48 46 43 41 52 48 47 51 49 51 53 56 55 53 53 52 53 53 53 54 54
53 53 53 55 54 53 54 54 54 54 53 50 46 47 47 50 49 47 46 45 44 48 48 44 49 47 51 54 55 55 53 52 52 52 52 53 53 54
53 52 51 51 52 51 50 49 50 51 51 52 50 49 49 51 49 49 48 47 47 49 47 38 46 45 50 52 54 54 54 53 52 52 52 52 52 53
52 52 51 49 50 51 46 44 45 46 51 52 52 52 53 53 51 45 42 40 38 39 44 41 43 45 47 49 52 54 53 53 53 53 52 52 52 53
48 49 48 48 49 49 45 43 42 45 47 48 48 49 50 50 50 48 46 41 41 38 44 42 44 44 40 48 49 51 50 52 52 51 51 51 52 50
45 45 46 48 48 48 48 45 44 47 45 41 40 41 43 46 48 49 49 45 40 39 45 46 42 43 42 41 45 48 47 48 49 49 51 50 50 50
43 45 46 47 48 48 47 48 49 48 45 44 42 42 43 45 47 48 49 48 47 44 46 46 40 41 40 39 38 45 46 46 46 46 47 50 51 50
45 46 47 46 46 45 45 47 47 44 42 41 41 42 43 44 45 44 45 45 44 44 46 45 42 41 40 37 37 40 41 43 45 44 45 45 46 47
45 43 45 45 47 45 45 44 43 42 40 38 38 40 41 39 38 39 37 38 37 38 44 45 44 42 38 39 39 38 41 37 43 44 45 45 46 48
43 42 41 41 40 40 40 40 40 40 38 39 38 38 38 39 38 40 37 36 35 36 38 42 44 44 42 40 36 39 40 40 42 42 42 41 44 46
40 38 37 36 36 35 35 36 37 38 37 37 37 37 36 37 37 39 39 37 35 36 37 39 39 38 38 40 43 39 40 40 41 42 42 39 40 44
36 36 35 36 36 36 36 36 35 37 38 37 37 36 37 37 37 36 37 37 36 36 37 38 36 34 31 31 41 45 39 40 40 40 41 40 39 42
36 36 36 36 36 36 35 35 35 35 35 35 36 36 36 36 35 35 35 35 35 36 36 36 35 34 32 33 36 42 43 42 40 39 39 41 43 47
36 36 36 36 35 35 35 35 35 35 36 35 35 35 36 36 35 35 35 37 36 35 33 34 37 41 39 41 35 37 41 42 44 42 41 39 38 39
35 35 36 36 35 35 35 35 35 35 35 35 35 35 35 35 35 35 36 35 35 35 35 37 38 39 38 36 35 37 39 43 44 43 44 43 39 35
35 35 35 35 36 36 35 35 35 35 35 35 35 35 35 35 36 36 35 35 36 35 36 34 37 38 37 37 37 36 38 39 39 39 41 44 44 44
MSLP
1022.24 1022.26 1022.28 1022.31 1022.50 1022.56 1022.79 1022.88 1022.96 1022.79 1022.20 1021.76 1021.67 1021.93 1022.39 1022.92 1023.27 1023.45 1023.42 1023.38 1023.49 1023.65 1023.46 1023.64 1023.71 1023.47 1023.36 1023.30 1023.21 1023.08 1022.95 1022.79 1022.53 1022.39 1022.18 1021.96 1022.01 1022.11
1022.26 1022.18 1022.46 1022.59 1022.75 1022.98 1023.22 1023.42 1023.43 1023.41 1022.98 1022.67 1022.18 1022.00 1022.18 1022.62 1023.04 1023.23 1023.21 1023.08 1022.99 1022.98 1023.01 1023.30 1023.14 1023.09 1023.10 1022.99 1022.96 1022.88 1022.75 1022.57 1022.45 1022.27 1022.06 1021.99 1022.02 1022.01
1022.30 1022.43 1022.65 1022.86 1022.92 1023.11 1023.40 1023.72 1023.82 1023.74 1023.27 1022.88 1022.70 1022.32 1022.32 1022.42 1022.65 1022.91 1022.95 1022.80 1022.49 1022.34 1022.25 1022.41 1022.55 1022.76 1022.61 1022.47 1022.54 1022.43 1022.42 1022.39 1022.17 1021.94 1021.77 1021.76 1021.85 1021.83
1022.47 1022.65 1022.84 1022.92 1023.07 1023.11 1023.36 1023.49 1023.52 1023.48 1023.34 1023.06 1022.88 1022.77 1022.77 1022.56 1022.58 1022.58 1022.68 1022.55 1022.24 1021.96 1021.77 1021.81 1022.00 1022.25 1022.00 1022.01 1022.03 1022.18 1022.08 1021.94 1021.80 1021.68 1021.55 1021.51 1021.50 1021.55
1022.49 1022.79 1022.96 1023.00 1022.86 1022.90 1022.93 1022.94 1023.20 1023.19 1023.06 1022.95 1022.78 1022.66 1022.53 1022.77 1022.78 1022.25 1022.04 1021.88 1021.94 1021.59 1021.54 1021.26 1021.62 1021.51 1021.44 1021.52 1021.61 1021.81 1021.72 1021.43 1021.43 1021.46 1021.49 1021.42 1021.40 1021.29
1022.53 1022.64 1022.62 1022.80 1022.64 1022.76 1022.78 1022.66 1022.58 1022.52 1022.54 1022.55 1022.56 1022.51 1022.71 1022.99 1022.70 1021.97 1021.58 1021.86 1021.89 1021.71 1021.52 1021.53 1021.05 1020.70 1020.82 1020.97 1021.15 1021.19 1021.15 1021.04 1021.05 1021.07 1021.07 1021.08 1021.01 1020.98
1022.40 1022.46 1022.45 1022.53 1022.65 1022.95 1023.02 1022.86 1022.79 1022.67 1022.57 1022.75 1022.77 1022.89 1022.73 1022.42 1022.00 1021.70 1021.60 1021.54 1021.26 1021.32 1021.34 1021.01 1020.62 1020.29 1020.40 1020.21 1020.47 1020.43 1020.49 1020.61 1020.73 1020.69 1020.64 1020.67 1020.66 1020.61
1022.44 1022.55 1022.54 1022.64 1022.65 1022.57 1022.66 1022.66 1022.66 1022.50 1022.41 1022.52 1022.51 1022.31 1021.96 1021.80 1021.42 1021.31 1021.25 1021.37 1021.14 1020.88 1020.62 1020.38 1020.09 1020.11 1020.10 1020.01 1019.81 1019.91 1020.15 1020.32 1020.42 1020.40 1020.33 1020.33 1020.30 1020.29
1022.82 1022.73 1022.67 1022.58 1022.62 1022.59 1022.41 1022.21 1022.14 1022.03 1021.85 1021.82 1021.66 1021.55 1021.32 1021.03 1020.95 1020.84 1020.89 1020.81 1020.53 1020.25 1020.13 1019.94 1019.86 1019.91 1019.98 1019.82 1019.63 1019.62 1019.77 1019.90 1020.03 1020.01 1019.94 1019.90 1019.85 1019.82
1022.80 1022.75 1022.74 1022.70 1022.61 1022.48 1022.39 1022.21 1022.01 1021.75 1021.51 1021.32 1021.36 1021.28 1021.04 1020.83 1020.78 1020.53 1020.31 1020.24 1020.14 1019.66 1019.82 1019.79 1019.85 1019.70 1019.56 1019.37 1019.27 1019.15 1019.20 1019.39 1019.53 1019.58 1019.55 1019.44 1019.42 1019.38
1022.69 1022.51 1022.59 1022.57 1022.53 1022.49 1022.42 1022.29 1021.93 1021.66 1021.49 1020.97 1020.65 1020.41 1020.10 1019.87 1019.85 1019.97 1020.07 1019.91 1019.80 1019.72 1019.81 1019.62 1019.38 1019.14 1019.02 1018.81 1018.56 1018.33 1018.45 1018.56 1018.84 1018.90 1018.92 1018.90 1018.86 1018.90
1023.07 1022.86 1022.88 1022.73 1022.54 1022.42 1022.34 1022.14 1021.69 1021.27 1020.77 1020.35 1020.15 1019.90 1019.73 1019.53 1019.53 1019.55 1019.53 1019.34 1019.20 1019.11 1018.78 1018.82 1018.67 1018.77 1018.72 1018.34 1018.17 1018.13 1018.28 1018.41 1018.49 1018.53 1018.41 1018.31 1018.32 1018.45
1023.07 1022.98 1022.96 1022.73 1022.39 1022.11 1021.83 1021.64 1021.35 1020.82 1020.56 1020.46 1020.51 1020.30 1020.02 1019.49 1019.05 1018.85 1018.74 1018.76 1018.76 1018.45 1018.32 1018.23 1018.45 1018.33 1018.34 1018.31 1018.25 1018.17 1018.19 1018.22 1018.22 1018.03 1017.82 1017.77 1017.80 1017.88
1023.35 1023.02 1022.75 1022.42 1021.89 1021.53 1021.23 1021.01 1020.58 1020.29 1020.15 1019.88 1019.70 1019.46 1019.22 1018.90 1018.56 1018.31 1018.19 1018.24 1018.36 1018.50 1018.45 1018.49 1018.52 1018.47 1018.40 1018.21 1018.08 1017.97 1017.92 1017.96 1018.06 1017.95 1017.71 1017.47 1017.35 1017.46
1023.12 1022.72 1022.26 1022.10 1021.89 1021.56 1021.29 1020.81 1020.51 1020.33 1020.04 1019.74 1019.42 1019.17 1019.02 1019.00 1018.72 1018.56 1018.45 1018.32 1018.31 1018.26 1018.23 1018.16 1018.19 1018.11 1018.23 1018.11 1017.90 1017.68 1017.65 1017.68 1017.64 1017.67 1017.52 1017.58 1017.27 1017.23
1022.96 1022.68 1022.28 1021.90 1021.51 1021.33 1021.03 1020.90 1020.77 1020.55 1020.37 1020.12 1019.77 1019.43 1019.20 1019.15 1018.97 1018.80 1018.63 1018.48 1018.36 1018.01 1017.71 1017.51 1017.50 1017.62 1017.71 1017.67 1017.61 1017.41 1017.27 1017.41 1017.28 1017.27 1017.22 1017.04 1016.98 1016.78
1022.73 1022.60 1022.24 1021.93 1021.79 1021.59 1021.35 1021.12 1020.91 1020.64 1020.35 1020.01 1019.67 1019.29 1018.95 1018.70 1018.46 1018.30 1018.31 1018.23 1017.97 1017.59 1017.26 1017.07 1016.91 1016.93 1017.12 1017.21 1017.12 1016.87 1016.76 1016.77 1016.81 1016.88 1016.89 1016.73 1016.58 1016.48
1022.97 1022.77 1022.61 1022.47 1022.27 1021.97 1021.59 1021.20 1020.85 1020.44 1020.15 1019.88 1019.61 1019.23 1018.82 1018.49 1018.13 1017.78 1017.61 1017.60 1017.39 1017.16 1016.91 1016.73 1016.81 1016.81 1016.73 1016.45 1016.35 1016.12 1016.20 1016.27 1016.36 1016.40 1016.40 1016.37 1016.24 1016.15
1023.26 1023.12 1022.81 1022.42 1022.11 1021.77 1021.35 1020.95 1020.51 1020.14 1019.81 1019.45 1019.10 1018.80 1018.49 1018.17 1017.83 1017.54 1017.32 1017.16 1016.93 1016.74 1016.52 1016.51 1016.67 1016.73 1016.33 1015.69 1015.06 1015.14 1015.46 1015.55 1015.73 1015.82 1015.85 1015.77 1015.71 1015.62
1023.15 1022.94 1022.71 1022.40 1022.05 1021.70 1021.26 1020.87 1020.45 1020.03 1019.57 1019.16 1018.74 1018.40 1018.05 1017.78 1017.44 1017.17 1016.99 1016.77 1016.47 1016.28 1016.09 1016.10 1016.23 1016.27 1016.04 1015.41 1014.89 1014.58 1014.55 1014.90 1015.04 1015.15 1015.20 1015.16 1015.03 1014.96
1023.12 1022.94 1022.67 1022.29 1021.88 1021.48 1021.01 1020.59 1020.17 1019.65 1019.14 1018.85 1018.45 1018.02 1017.68 1017.34 1017.02 1016.77 1016.52 1016.20 1016.02 1015.89 1015.67 1015.57 1015.54 1015.56 1015.38 1015.03 1014.72 1014.36 1014.23 1014.31 1014.45 1014.52 1014.61 1014.59 1014.52 1014.49
1023.15 1022.84 1022.47 1022.06 1021.62 1021.16 1020.71 1020.29 1019.79 1019.26 1018.75 1018.46 1018.13 1017.74 1017.40 1017.09 1016.66 1016.34 1016.07 1015.80 1015.58 1015.39 1015.18 1015.10 1015.08 1014.84 1014.53 1014.33 1014.03 1013.79 1013.64 1013.61 1013.51 1013.62 1013.68 1013.91 1014.04 1013.60
1023.02 1022.59 1022.18 1021.74 1021.29 1020.83 1020.42 1019.94 1019.41 1018.88 1018.44 1018.05 1017.66 1017.31 1017.02 1016.66 1016.32 1015.97 1015.69 1015.44 1015.18 1014.92 1014.71 1014.56 1014.33 1014.11 1013.92 1013.77 1013.62 1013.50 1013.34 1013.24 1013.27 1013.17 1013.01 1012.98 1013.05 1013.00
Wind_Speed
5 4 3 0 1 2 3 3 4 6 7 7 2 4 1 3 4 6 7 11 14 15 15 16 18 18 18 18 17 17 15 17 16 16 16 15 13 13
2 2 2 1 1 3 3 3 4 5 7 6 6 5 4 5 7 8 9 12 15 16 15 16 17 18 19 19 19 19 18 17 17 17 16 15 16 17
1 3 3 1 2 1 1 2 4 5 7 6 7 7 9 7 7 7 8 8 8 15 15 15 15 17 19 20 20 20 19 18 18 17 16 15 16 17
4 3 3 2 2 3 4 6 6 7 6 10 7 6 9 8 8 8 7 9 8 14 16 16 13 17 19 19 19 20 20 20 18 17 16 15 16 17
3 3 5 5 7 5 7 6 6 6 7 7 8 7 5 7 11 9 8 7 8 15 14 15 16 15 15 17 18 16 17 16 18 18 16 16 18 18
5 6 7 8 9 8 8 8 8 8 8 8 8 6 5 7 10 11 5 6 7 8 10 14 17 16 15 17 18 18 15 14 14 16 16 17 17 16
7 8 8 9 10 10 8 9 10 9 7 6 6 6 8 9 9 7 7 8 8 4 5 6 7 4 7 14 14 15 15 13 14 15 14 13 14 13
8 8 9 12 11 15 14 18 15 11 11 8 7 8 11 11 9 5 6 7 9 6 5 5 4 3 4 5 11 2 6 8 12 13 13 13 14 16
8 9 9 8 11 11 14 17 16 19 19 12 12 11 12 11 11 10 10 9 9 7 7 7 5 7 6 8 11 13 10 10 12 14 16 16 15 15
9 9 9 11 11 11 10 11 12 12 12 8 9 11 13 11 10 10 11 8 9 7 1 4 4 8 7 7 14 15 13 13 13 14 15 16 16 16
9 9 10 11 15 18 10 10 11 11 14 21 21 23 24 24 19 8 8 7 7 4 4 6 6 7 5 6 6 14 15 14 13 14 16 18 17 17
10 10 13 14 18 18 12 10 12 12 11 10 10 11 15 10 18 11 8 9 8 6 7 7 7 5 3 5 6 2 3 3 6 10 15 18 17 7
9 7 7 17 18 19 18 10 12 14 13 5 5 5 6 8 7 7 8 8 6 6 4 3 4 4 4 5 4 4 2 5 6 6 10 14 15 11
8 7 9 17 20 21 17 19 20 16 8 7 7 7 7 7 7 8 7 5 4 6 7 5 3 3 5 8 7 4 4 4 4 6 5 8 11 11
7 12 19 18 18 13 14 18 19 8 7 8 8 7 7 7 9 8 7 8 8 8 8 9 7 7 7 7 6 5 6 4 4 4 4 5 4 5
12 8 11 15 16 13 10 8 7 7 7 7 7 7 6 6 5 5 6 6 6 7 9 10 9 8 7 8 7 7 6 4 3 4 5 5 6 6
11 7 6 5 6 6 6 7 7 6 6 7 7 7 7 6 6 6 6 6 7 7 6 6 7 8 8 9 7 8 7 6 5 6 6 6 6 6
6 5 6 6 6 6 6 7 7 9 7 7 7 7 7 7 7 6 6 6 7 7 6 6 4 5 5 7 17 8 6 6 5 6 6 7 7 6
3 5 4 4 5 6 6 7 7 7 8 7 7 7 7 7 9 7 7 7 7 7 7 5 4 6 7 8 5 18 8 6 6 6 7 7 8 6
4 4 5 5 6 6 7 7 7 7 7 7 7 7 7 7 7 7 6 7 7 6 6 5 5 5 8 7 6 4 14 8 6 6 6 7 7 12
5 5 5 6 6 6 7 6 7 7 7 6 6 6 6 6 7 7 7 12 11 6 7 6 5 13 8 7 5 6 6 12 10 7 5 6 5 5
5 6 6 6 6 6 7 6 7 7 6 5 6 6 6 6 7 7 6 6 6 6 6 4 6 8 7 7 7 8 5 4 9 18 18 16 6 6
6 6 7 6 6 6 6 6 7 7 6 6 5 5 5 6 7 6 6 6 7 6 6 6 6 6 7 7 9 7 9 9 7 7 7 16 19 21
Wind_Direction
265 256 264 264 301 308 319 312 302 293 290 304 319 163 43 318 322 308 300 295 292 291 285 281 286 286 285 287 288 289 288 291 285 283 284 283 292 293
281 247 248 255 321 24 329 323 301 291 285 298 301 315 263 293 305 306 291 285 278 272 272 274 279 282 281 283 284 284 283 284 280 278 278 278 282 284
53 260 256 243 293 276 354 304 282 274 276 285 293 296 292 282 276 289 301 298 290 286 282 276 265 270 278 282 282 282 277 276 276 273 270 269 271 273
213 240 273 279 289 273 251 253 259 270 274 278 279 295 297 302 297 287 284 290 288 285 279 277 283 280 280 278 276 273 273 271 275 275 273 275 272 274
338 296 288 281 266 250 257 254 263 271 276 274 275 273 285 320 314 285 274 286 322 316 320 293 265 264 269 275 274 277 278 280 266 269 269 274 275 276
247 255 287 295 296 285 276 280 281 273 264 268 275 287 294 278 280 277 305 300 285 271 286 288 286 279 279 270 267 265 264 266 269 265 264 265 267 265
299 295 278 273 285 295 295 294 293 291 293 300 287 281 270 266 269 289 291 290 284 268 254 260 267 245 248 257 250 252 250 260 272 271 271 273 276 270
310 309 314 310 298 293 293 289 279 279 274 267 256 256 270 275 261 267 271 282 283 257 277 264 289 287 279 295 298 286 202 252 270 269 266 268 267 265
301 302 301 298 308 293 289 287 281 274 269 271 273 274 281 292 304 297 274 257 262 271 256 261 249 265 269 278 275 276 243 249 262 268 264 264 264 265
302 302 300 296 294 302 297 288 288 289 291 293 284 280 274 272 265 267 279 293 296 272 167 247 262 259 261 255 267 264 248 246 251 262 268 261 261 260
305 310 333 322 314 311 314 301 284 280 279 277 276 272 273 275 274 269 266 270 278 254 251 243 243 256 251 268 255 245 239 236 255 276 266 261 258 251
326 314 316 307 306 305 302 295 292 288 286 294 298 298 296 291 285 279 278 273 257 264 231 238 229 231 272 233 257 279 22 247 280 267 268 258 253 254
316 323 305 304 301 298 294 285 286 289 297 310 284 270 266 262 263 259 255 258 269 266 273 242 269 253 241 264 265 277 272 302 288 281 279 252 247 238
302 304 298 295 302 305 307 301 300 306 306 284 271 267 265 266 268 272 283 289 296 286 297 305 261 249 271 270 261 249 239 242 270 281 275 274 239 235
291 291 312 319 311 308 299 298 310 307 303 300 298 303 312 314 305 305 300 303 299 286 275 267 258 261 253 256 262 257 252 236 256 286 257 273 268 228
309 308 303 303 311 312 326 325 314 307 301 297 296 290 281 274 278 280 272 267 268 270 262 257 247 245 250 249 255 261 247 225 226 262 267 249 246 256
327 315 311 320 330 325 326 324 321 314 304 299 292 290 287 279 266 254 252 259 257 267 266 258 252 248 245 247 251 249 247 245 233 247 259 261 257 262
318 332 339 332 323 314 306 301 293 292 282 283 287 291 286 282 279 275 261 257 262 262 263 263 268 284 266 253 241 247 242 241 240 242 239 248 256 256
332 315 285 290 303 303 300 300 299 303 306 289 278 274 276 276 282 275 272 269 263 264 259 257 250 258 266 262 235 210 236 236 231 233 238 237 244 246
285 308 318 320 313 309 306 306 306 309 302 299 296 291 277 275 274 268 266 266 266 268 268 237 233 247 263 268 273 256 216 228 224 229 235 238 242 250
317 315 309 305 303 298 296 294 294 292 301 310 302 297 296 281 275 266 261 269 265 264 263 258 238 247 253 265 254 252 247 216 230 249 248 249 240 244
308 303 301 301 299 297 300 299 297 300 293 298 301 302 299 289 280 277 274 271 266 265 266 256 255 257 251 247 255 257 257 251 232 229 228 234 236 238
308 304 307 297 294 294 294 300 299 297 298 286 285 290 291 286 288 283 279 276 272 270 267 260 253 261 254 248 254 259 263 262 260 262 247 233 237 246